Location: Bowman Observatory
(41.0326°N, 73.6210°W)
Time: 06:02:25
(UTC-05:00)

Cosmos 2298 Rocket - Visible Passes

Search period start: 19 December 2014 00:00
Search period end: 29 December 2014 00:00
Orbit: 776 x 785 km, 74.0° (Epoch: 18 December)

Date Brightness Start Highest point End Pass type
(mag) Time Alt. Az. Time Alt. Az. Time Alt. Az.
19 Dec 6.4 04:41:41 10° SSE 04:45:42 22° E 04:49:44 10° NE visible
19 Dec 4.3 06:22:36 10° SW 06:27:41 45° WNW 06:32:48 10° N visible
19 Dec 6.7 16:52:54 10° NW 16:57:05 24° W 17:01:14 10° SSW visible
20 Dec 7.0 04:10:05 10° ESE 04:12:40 14° E 04:15:15 10° ENE visible
20 Dec 4.0 05:49:00 10° SSW 05:54:18 71° WNW 05:59:39 10° NNE visible
21 Dec 4.2 05:15:43 10° S 05:21:00 75° ESE 05:26:20 10° NNE visible
22 Dec 5.0 04:42:44 10° S 04:47:47 47° ESE 04:52:52 10° NNE visible
22 Dec 5.1 06:26:09 10° WSW 06:30:21 23° WNW 06:34:34 10° N visible
23 Dec 5.8 04:10:06 10° SSE 04:14:38 29° E 04:19:12 10° NE visible
23 Dec 4.6 05:52:00 10° SW 05:56:50 35° WNW 06:01:42 10° N visible
24 Dec 6.5 03:39:23 15° SE 03:41:34 19° E 03:45:10 10° NE visible
24 Dec 4.1 05:20:19 24° SW 05:23:24 53° WNW 05:28:38 10° N visible
25 Dec 7.1 03:10:04 10° ENE 03:10:04 10° ENE 03:10:04 10° ENE visible
25 Dec 4.0 04:50:44 68° N 04:50:44 68° N 04:55:25 10° NNE visible
25 Dec 5.8 06:31:24 10° WNW 06:33:15 12° NW 06:35:19 10° NNW visible
26 Dec 5.6 04:19:40 27° NNE 04:19:40 27° NNE 04:22:04 10° NNE visible
26 Dec 5.5 06:00:16 18° NW 06:00:16 18° NW 06:03:13 10° NNW visible
27 Dec 6.7 03:48:03 12° NE 03:48:03 12° NE 03:48:31 10° NE visible
27 Dec 5.6 05:28:38 19° NNW 05:28:38 19° NNW 05:30:31 10° N visible
28 Dec 6.1 04:56:43 14° N 04:56:43 14° N 04:57:34 10° N visible
